K7RAP Weather Reports


time (UTC)temp
C
wind
direction
speed
KPH
gust
KPH
rain 1hr
cm
rain 24hr
cm
rain mn
cm
humidity
%
barometer
mb
20260503224004 32 240 1.6 12.9 0.00 0.00 0.00 30 1007.1
20260503223003 33 189 3.2 8.0 0.00 0.00 0.00 35 1007.5
20260503222003 33 189 3.2 8.0 0.00 0.00 0.00 35 1007.5
20260503221003 33 189 0.0 8.0 0.00 0.00 0.00 33 1007.5
20260503220004 32 35 4.8 9.7 0.00 0.00 0.00 28 1007.8
20260503215003 32 35 4.8 9.7 0.00 0.00 0.00 28 1007.8
20260503214004 32 207 3.2 8.0 0.00 0.00 0.00 39 1008.1
20260503213004 32 355 1.6 8.0 0.00 0.00 0.00 36 1008.1
20260503212004 32 355 1.6 8.0 0.00 0.00 0.00 36 1008.1
20260503211003 31 144 1.6 9.7 0.00 0.00 0.00 38 1008.5
20260503210004 31 232 3.2 9.7 0.00 0.00 0.00 41 1008.5
20260503205003 31 232 3.2 9.7 0.00 0.00 0.00 41 1008.5
20260503204003 30 236 8.0 8.0 0.00 0.00 0.00 43 1008.8
20260503203009 30 236 8.0 8.0 0.00 0.00 0.00 43 1008.8
20260503202004 30 209 3.2 9.7 0.00 0.00 0.00 45 1009.1
20260503201003 29 248 1.6 11.3 0.00 0.00 0.00 46 1009.1
20260503200004 29 239 3.2 9.7 0.00 0.00 0.00 41 1009.5
20260503195003 29 239 3.2 9.7 0.00 0.00 0.00 41 1009.5
20260503194003 28 295 1.6 12.9 0.00 0.00 0.00 43 1009.5
20260503193004 28 21 3.2 6.4 0.00 0.00 0.00 44 1009.8
20260503192004 28 21 3.2 6.4 0.00 0.00 0.00 44 1009.8
20260503191004 27 229 0.0 8.0 0.00 0.00 0.00 44 1009.8
20260503190004 27 135 3.2 9.7 0.00 0.00 0.00 46 1010.2
20260503185003 27 135 3.2 9.7 0.00 0.00 0.00 46 1010.2
20260503184003 27 177 3.2 8.0 0.00 0.00 0.00 45 1010.2
20260503183003 26 234 3.2 6.4 0.00 0.00 0.00 46 1010.5
20260503182004 26 234 3.2 6.4 0.00 0.00 0.00 46 1010.5
20260503181004 25 217 3.2 8.0 0.00 0.00 0.00 47 1010.5
20260503180005 24 105 1.6 12.9 0.00 0.00 0.00 50 1010.5
20260503175003 24 105 1.6 12.9 0.00 0.00 0.00 50 1010.5
20260503174003 24 198 4.8 12.9 0.00 0.00 0.00 50 1010.5
20260503173003 23 63 1.6 11.3 0.00 0.00 0.00 57 1010.8
20260503172003 23 63 1.6 11.3 0.00 0.00 0.00 57 1010.8
20260503171003 22 169 3.2 9.7 0.00 0.00 0.00 61 1010.8
20260503151003 12 42 0.0 3.2 0.00 0.00 0.00 91 1011.5
20260503131003 10 48 0.0 1.6 0.00 0.00 0.00 91 1011.2
20260503081003 13 38 1.6 3.2 0.00 0.00 0.00 87 1011.5
20260503072004 13 38 0.0 0.0 0.00 0.00 0.00 86 1011.9
20260503071003 14 50 0.0 0.0 0.00 0.00 0.00 85 1011.9
20260503055003 15 23 0.0 3.2 0.00 0.00 0.00 82 1011.9
20260503054004 16 34 0.0 1.6 0.00 0.00 0.00 81 1011.9
20260503053003 16 34 0.0 1.6 0.00 0.00 0.00 80 1012.2
20260503052003 16 34 0.0 1.6 0.00 0.00 0.00 80 1012.2
20260503051003 16 49 1.6 3.2 0.00 0.00 0.00 80 1011.9
20260503050005 16 34 0.0 1.6 0.00 0.00 0.00 79 1011.9
20260503045003 16 34 0.0 1.6 0.00 0.00 0.00 79 1011.9
20260503044004 17 44 0.0 1.6 0.00 0.00 0.00 79 1011.5
20260503043004 17 41 1.6 3.2 0.00 0.00 0.00 78 1011.5
20260503042003 17 41 1.6 3.2 0.00 0.00 0.00 78 1011.5
20260503041003 17 75 0.0 1.6 0.00 0.00 0.00 78 1011.2
20260503040005 17 75 0.0 1.6 0.00 0.00 0.00 78 1011.2
20260503035004 17 75 0.0 3.2 0.00 0.00 0.00 76 1010.8
20260503034004 18 80 1.6 3.2 0.00 0.00 0.00 75 1010.5
20260503033004 19 98 1.6 3.2 0.00 0.00 0.00 74 1009.8
20260503032004 19 98 1.6 3.2 0.00 0.00 0.00 74 1009.8
20260503031003 20 228 0.0 4.8 0.00 0.00 0.00 71 1009.8
20260503030004 21 219 0.0 4.8 0.00 0.00 0.00 67 1009.8
20260503025003 21 219 0.0 4.8 0.00 0.00 0.00 67 1009.8
20260503024003 21 223 0.0 3.2 0.00 0.00 0.00 67 1009.8
20260503023004 22 231 3.2 8.0 0.00 0.00 0.00 64 1009.8
20260503022003 22 231 3.2 8.0 0.00 0.00 0.00 64 1009.8
20260503021005 22 211 1.6 9.7 0.00 0.00 0.00 63 1009.8
20260503020004 23 227 4.8 11.3 0.00 0.00 0.00 58 1009.8
20260503015003 23 227 4.8 11.3 0.00 0.00 0.00 58 1009.8
20260503014003 23 227 3.2 9.7 0.00 0.00 0.00 60 1009.8
20260503013004 24 213 1.6 11.3 0.00 0.00 0.00 57 1009.8
20260503012003 24 213 1.6 11.3 0.00 0.00 0.00 57 1009.8
20260503011004 25 223 4.8 14.5 0.00 0.00 0.00 55 1009.8
20260503010004 26 233 4.8 11.3 0.00 0.00 0.00 51 1009.8
20260503005003 26 233 4.8 11.3 0.00 0.00 0.00 51 1009.8
20260503004003 26 209 1.6 12.9 0.00 0.00 0.00 52 1009.8
20260503003004 25 213 3.2 6.4 0.00 0.00 0.00 58 1009.8
20260503002003 25 213 3.2 6.4 0.00 0.00 0.00 58 1009.8
20260503001004 24 244 1.6 6.4 0.00 0.00 0.00 59 1009.8
20260503000004 24 180 1.6 8.0 0.00 0.00 0.00 59 1010.2
20260502235003 24 180 1.6 8.0 0.00 0.00 0.00 59 1010.2
20260502234003 23 233 3.2 12.9 0.00 0.00 0.00 61 1010.2
20260502233004 23 219 8.0 11.3 0.00 0.00 0.00 62 1010.5
20260502232004 23 219 8.0 11.3 0.00 0.00 0.00 62 1010.5
20260502231004 23 227 3.2 11.3 0.00 0.00 0.00 62 1010.8
20260502230004 23 194 4.8 11.3 0.00 0.00 0.00 60 1011.2
20260502225003 23 194 4.8 11.3 0.00 0.00 0.00 60 1011.2